E24YPM-1 Weather Reports


time (UTC)temp
F
wind
direction
speed
knots
gust
knots
rain 1hr
in
rain 24hr
in
rain mn
in
humidity
%
barometer
mb
20260505160555 89 0 0.0 0.0 0.00 0.00 0.00 30 1005.0
20260505152003 88 0 0.0 0.0 0.00 0.00 0.00 33 1005.0
20260505150445 89 0 0.0 0.0 0.00 0.00 0.00 33 1005.0
20260505140343 91 0 0.0 0.0 0.00 0.00 0.00 37 1004.0
20260505130236 96 0 0.0 0.0 0.00 0.00 0.00 52 1002.0
20260505124724 96 0 0.0 0.0 0.00 0.00 0.00 51 1002.0
20260505123210 96 0 0.0 0.0 0.00 0.00 0.00 50 1002.0
20260505121656 96 0 0.0 0.0 0.00 0.00 0.00 49 1002.0
20260505120421 96 0 0.0 0.0 0.00 0.00 0.00 48 1002.0
20260505114628 96 0 0.0 0.0 0.00 0.00 0.00 48 1002.0
20260505113114 96 0 0.0 0.0 0.00 0.00 0.00 48 1001.0
20260505111601 96 0 0.0 0.0 0.00 0.00 0.00 48 1001.0
20260505101505 97 0 0.0 0.0 0.00 0.00 0.00 48 1001.0
20260505095948 97 0 0.0 0.0 0.00 0.00 0.00 47 1001.0
20260505094432 97 0 0.0 0.0 0.00 0.00 0.00 47 1001.0
20260505092920 97 0 0.0 0.0 0.00 0.00 0.00 46 1001.0
20260505091407 97 0 0.0 0.0 0.00 0.00 0.00 45 1001.0
20260505085852 97 0 0.0 0.0 0.00 0.00 0.00 46 1001.0
20260505082755 97 0 0.0 0.0 0.00 0.00 0.00 46 1002.0
20260505081235 97 0 0.0 0.0 0.00 0.00 0.00 46 1002.0
20260505075722 96 0 0.0 0.0 0.00 0.00 0.00 46 1002.0
20260505074207 96 0 0.0 0.0 0.00 0.00 0.00 44 1003.0
20260505072655 96 0 0.0 0.0 0.00 0.00 0.00 45 1003.0
20260505065603 96 0 0.0 0.0 0.00 0.00 0.00 47 1003.0
20260505064051 95 0 0.0 0.0 0.00 0.00 0.00 46 1004.0
20260505062538 95 0 0.0 0.0 0.00 0.00 0.00 47 1004.0
20260505061026 96 0 0.0 0.0 0.00 0.00 0.00 47 1005.0
20260505055512 95 0 0.0 0.0 0.00 0.00 0.00 47 1005.0
20260505054000 94 0 0.0 0.0 0.00 0.00 0.00 48 1006.0
20260505052445 94 0 0.0 0.0 0.00 0.00 0.00 50 1006.0
20260505050933 94 0 0.0 0.0 0.00 0.00 0.00 50 1006.0
20260505040838 93 0 0.0 0.0 0.00 0.00 0.00 51 1007.0
20260505035324 93 0 0.0 0.0 0.00 0.00 0.00 51 1007.0
20260505033812 93 0 0.0 0.0 0.00 0.00 0.00 51 1007.0
20260505032313 93 0 0.0 0.0 0.00 0.00 0.00 51 1007.0
20260505030821 93 0 0.0 0.0 0.00 0.00 0.00 51 1008.0
20260505025230 93 0 0.0 0.0 0.00 0.00 0.00 51 1008.0
20260505023716 93 0 0.0 0.0 0.00 0.00 0.00 51 1008.0
20260505022204 93 0 0.0 0.0 0.00 0.00 0.00 52 1008.0
20260505020652 93 0 0.0 0.0 0.00 0.00 0.00 53 1008.0
20260505015139 93 0 0.0 0.0 0.00 0.00 0.00 53 1008.0
20260505013623 93 0 0.0 0.0 0.00 0.00 0.00 54 1008.0
20260505012111 93 0 0.0 0.0 0.00 0.00 0.00 54 1008.0
20260505010555 92 0 0.0 0.0 0.00 0.00 0.00 55 1007.0
20260505005043 92 0 0.0 0.0 0.00 0.00 0.00 55 1007.0
20260505003531 92 0 0.0 0.0 0.00 0.00 0.00 55 1007.0
20260505002018 92 0 0.0 0.0 0.00 0.00 0.00 54 1007.0
20260505000505 92 0 0.0 0.0 0.00 0.00 0.00 53 1007.0
20260504234950 93 0 0.0 0.0 0.00 0.00 0.00 51 1007.0
20260504233436 93 0 0.0 0.0 0.00 0.00 0.00 50 1007.0
20260504231922 93 0 0.0 0.0 0.00 0.00 0.00 49 1007.0
20260504230405 93 0 0.0 0.0 0.00 0.00 0.00 50 1007.0
20260504224842 93 0 0.0 0.0 0.00 0.00 0.00 49 1007.0
20260504223328 93 0 0.0 0.0 0.00 0.00 0.00 49 1006.0
20260504221816 93 0 0.0 0.0 0.00 0.00 0.00 48 1006.0
20260504220317 93 0 0.0 0.0 0.00 0.00 0.00 48 1007.0
20260504214747 93 0 0.0 0.0 0.00 0.00 0.00 48 1006.0
20260504213235 92 0 0.0 0.0 0.00 0.00 0.00 47 1006.0
20260504211722 92 0 0.0 0.0 0.00 0.00 0.00 46 1006.0
20260504210209 92 0 0.0 0.0 0.00 0.00 0.00 44 1006.0
20260504204656 91 0 0.0 0.0 0.00 0.00 0.00 43 1005.0
20260504203144 91 0 0.0 0.0 0.00 0.00 0.00 40 1005.0
20260504201632 90 0 0.0 0.0 0.00 0.00 0.00 37 1005.0
20260504200120 88 0 0.0 0.0 0.00 0.00 0.00 32 1005.0
20260504194606 88 0 0.0 0.0 0.00 0.00 0.00 31 1005.0
20260504193253 88 0 0.0 0.0 0.00 0.00 0.00 30 1005.0
20260504191534 89 0 0.0 0.0 0.00 0.00 0.00 29 1005.0
20260504190019 89 0 0.0 0.0 0.00 0.00 0.00 29 1005.0
20260504184505 89 0 0.0 0.0 0.00 0.00 0.00 29 1005.0
20260504182952 89 0 0.0 0.0 0.00 0.00 0.00 30 1005.0
20260504181441 89 0 0.0 0.0 0.00 0.00 0.00 30 1005.0
20260504175937 89 0 0.0 0.0 0.00 0.00 0.00 30 1005.0
20260504174429 89 0 0.0 0.0 0.00 0.00 0.00 30 1005.0
20260504173036 89 0 0.0 0.0 0.00 0.00 0.00 30 1006.0
20260504171359 90 0 0.0 0.0 0.00 0.00 0.00 30 1006.0